Guadalupe Pass, TX

2:40 AM MST on November 13, 2019 (GMT -0700)
Guadalupe Pass

Weather History for KGDP - October, 2019

Change the Weather History Date:

Monday, October 21, 2019

  Actual Average Record
Temperature  
Mean Temperature 56 °F -  
Max Temperature 68 °F 66 °F 82 °F (2001)
Min Temperature 46 °F 47 °F 28 °F (1996)
Degree Days  
Heating Degree Days 9    
Growing Degree Days 6 (Base 50)    
Moisture  
Dew Point 13 °F    
Average Humidity 20    
Maximum Humidity 30    
Minimum Humidity 12    
Precipitation  
Precipitation 0.00 in - - ()
Sea Level Pressure  
Sea Level Pressure 29.97 in    
Wind  
Wind Speed 14 mph ()    
Max Wind Speed 39 mph    
Max Gust Speed 45 mph    
Visibility 10.0 miles    
Events      
Averages and records for this station are not official NWS values.
T = Trace of Precipitation, MM = Missing Value Source: Averaged Metar Reports

Daily Weather History Graph

Daily Weather History Graph

Search for Another Location

Airport or City:

Astronomy

Oct. 21, 2019 Rise Set
Actual Time 7:06 AM MDT 6:20 PM MDT
Civil Twilight 6:42 AM MDT 6:45 PM MDT
Nautical Twilight 6:13 AM MDT 7:13 PM MDT
Astronomical Twilight 5:45 AM MDT 7:41 PM MDT
Moon No Moon Rise 2:14 PM MDT (10/21)
Length of Visible Light 12h 03m
Length of Day
11h 13m
Waning Gibbous, 47% of the Moon is Illuminated
Oct 21
Waning Gibbous
Oct 27
New
Nov 4
First Quarter
Nov 12
Full
Nov 19
Last Quarter

Hourly Weather History & Observations

Time (MDT) Temp. Windchill Dew Point Humidity Pressure Visibility Wind Dir Wind Speed Gust Speed Precip Events Conditions
12:51 AM 48.9 °F - 17.1 °F 28% 29.86 in 10.0 mi East 12.7 mph - N/A   Clear
1:51 AM 53.1 °F - 16.0 °F 23% 29.86 in 10.0 mi SSE 6.9 mph - N/A   Clear
2:51 AM 53.1 °F - 18.0 °F 25% 29.85 in 10.0 mi SW 8.1 mph - N/A   Clear
3:51 AM 51.1 °F - 17.1 °F 26% 29.88 in 10.0 mi SW 8.1 mph - N/A   Clear
4:51 AM 48.0 °F - 18.0 °F 30% 29.90 in 10.0 mi SSW 9.2 mph - N/A   Clear
5:51 AM 46.9 °F - 17.1 °F 30% 29.92 in 10.0 mi SSW 10.4 mph - N/A   Clear
6:51 AM 46.0 °F 40.2 °F 15.1 °F 29% 29.95 in 10.0 mi SSW 12.7 mph - N/A   Clear
7:51 AM 46.9 °F - 14.0 °F 27% 29.97 in 10.0 mi SSW 9.2 mph - N/A   Clear
8:51 AM 50.0 °F - 12.0 °F 22% 30.01 in 10.0 mi WSW 6.9 mph - N/A   Clear
9:51 AM 52.0 °F - 14.0 °F 22% 30.00 in 10.0 mi WSW 18.4 mph - N/A   Clear
10:51 AM 55.9 °F - 12.0 °F 18% 29.97 in 10.0 mi WSW 27.6 mph - N/A   Clear
11:51 AM 61.0 °F - 12.0 °F 15% 29.97 in 10.0 mi WSW 29.9 mph 34.5 mph N/A   Clear
12:51 PM 63.0 °F - 12.0 °F 14% 29.95 in 10.0 mi WSW 32.2 mph 39.1 mph N/A   Clear
1:51 PM 64.9 °F - 14.0 °F 14% 29.91 in 10.0 mi WSW 32.2 mph 40.3 mph N/A   Clear
2:51 PM 66.0 °F - 16.0 °F 15% 29.89 in 10.0 mi WSW 27.6 mph 39.1 mph N/A   Clear
3:51 PM 66.9 °F - 12.9 °F 12% 29.88 in 10.0 mi West 39.1 mph 44.9 mph N/A   Clear
4:51 PM 64.9 °F - 12.0 °F 13% 29.91 in 10.0 mi WSW 31.1 mph 41.4 mph N/A   Clear
5:51 PM 62.1 °F - 10.0 °F 13% 29.96 in 10.0 mi WSW 23.0 mph 31.1 mph N/A   Clear
6:51 PM 59.0 °F - 9.0 °F 14% 30.01 in 10.0 mi West 16.1 mph 25.3 mph N/A   Clear
7:51 PM 57.9 °F - 10.0 °F 15% 30.04 in 10.0 mi Variable 5.8 mph 18.4 mph N/A   Clear
8:51 PM 57.9 °F - 10.0 °F 15% 30.06 in 10.0 mi WSW 8.1 mph - N/A   Clear
9:51 PM 57.9 °F - 10.0 °F 15% 30.08 in 10.0 mi SW 5.8 mph - N/A   Clear
10:51 PM 53.1 °F - 12.0 °F 20% 30.09 in 10.0 mi ENE 15.0 mph - N/A   Clear
11:04 PM 54.0 °F - 10.9 °F 18% 30.22 in 10.0 mi ENE 13.8 mph - N/A   Clear
11:51 PM 54.0 °F - 12.0 °F 19% 30.07 in 10.0 mi ENE 23.0 mph - N/A   Clear